Reflectivity
-20 -20 -20 -20 -20 -20 -20 -20 -20 -20 -20 -8 8 11 5 7 18 14 -20 -20 -20 -20 -20 -1 -6 -20 -20 -20 -16 8 -1 -20 -20 -20 -20 -14 -8 -20 5 -4 -13 -0 -12
-20 -20 -20 -20 -20 -20 -20 -20 -20 -20 -20 -20 -20 -20 -3 11 15 10 13 17 -20 -20 17 14 -17 -15 2 -20 -20 -5 -11 -7 -20 -20 -20 -20 -20 -14 -20 -20 -8 -18 -6
-20 -20 -20 -20 -20 -20 -20 -20 -20 -20 -20 -20 -20 -20 -20 -20 -17 -9 12 20 19 24 23 19 17 12 -20 16 17 -20 3 20 5 5 -20 20 6 -20 -20 -20 -7 -20 15
-20 -20 -20 -20 -20 -20 -20 -20 -20 -20 -20 -20 -20 -20 -20 -20 -20 -20 -20 -20 2 2 25 22 27 17 20 20 12 5 -11 -20 -12 -4 16 -12 24 3 20 14 12 14 20
-20 -20 -20 -20 -20 -20 -20 -20 -20 -20 -20 -20 -20 -20 -20 -20 -20 -20 -20 -20 -20 -20 -20 -20 2 14 23 20 -10 10 21 0 -20 -4 -15 23 16 24 24 17 15 33 32
-20 -20 -20 -20 -20 -20 -20 -20 -20 -20 -20 -20 -20 -20 -20 -20 -20 -20 -20 -20 -20 -20 -20 -20 -20 -6 -20 25 22 14 21 22 18 -18 19 27 8 35 33 35 23 34 36
-20 -20 -20 -20 -20 -20 -20 -20 -20 -20 -20 -20 -20 -20 -20 -20 -20 -20 -20 -20 -20 -20 -20 -20 -20 -20 -20 -20 -10 -1 34 19 28 44 16 4 -10 -3 24 36 33 22 26
-20 -20 -20 -20 -20 -20 -20 -20 -20 -20 -20 -20 -20 -20 -20 -20 -20 -20 -20 -20 -20 -20 -20 -20 -20 21 5 -12 -20 -2 29 32 26 -2 10 25 7 8 17 34 30 25 22
-20 -20 -20 -20 -20 -20 -20 -20 -20 -20 -20 -20 -20 7 -7 -20 -20 -20 -20 -20 -20 -20 -20 -20 -20 -11 -20 4 13 20 29 21 29 14 22 30 15 23 34 34 37 28 21
-20 -20 -20 -20 -20 -20 -20 -20 -20 -20 -20 -20 -20 -20 -20 -20 -1 -6 -20 -20 -20 -20 -20 -20 -20 -20 -20 0 -16 -13 30 -20 -17 -20 24 25 26 29 33 29 31 32 31
-20 -20 -20 -20 -20 -20 -20 -20 -20 -20 -20 -20 -20 -20 -20 -20 -20 -20 -13 -20 -20 -20 -20 -20 -20 -19 -13 -14 35 36 31 26 -7 19 25 28 27 28 33 35 35 38 18
-20 -20 -16 -13 -20 -8 -20 -20 -20 -20 -20 -20 -20 -20 -20 -10 -5 8 -6 -20 -20 -20 -20 -17 -20 -1 15 29 32 39 46 36 29 33 26 26 26 22 22 12 5 4 -16
-20 -20 -20 -17 -20 -5 6 -3 -20 -20 -20 -20 -20 -20 -13 -17 8 4 -1 -2 2 -20 -20 -2 -20 -15 9 24 35 29 35 44 28 45 44 31 27 7 4 16 8 -17 -6
-20 -20 -20 -20 -19 -16 -9 -2 -20 8 -20 -2 -19 1 9 13 6 8 16 16 0 5 -20 -16 4 -19 1 21 24 37 26 15 17 25 2 1 10 -20 -20 2 6 -8 -20
-20 -20 -20 -20 -20 -20 -20 -2 10 -15 -20 -20 -20 -20 -20 -20 -20 -13 -14 -2 13 11 -8 -20 -1 -19 0 0 10 32 15 -4 8 17 6 -16 -20 -20 -20 -20 -20 -20 -20
-20 -20 -20 -20 -20 -20 -20 1 -19 -20 -20 -20 -20 -20 -20 -20 -20 -20 -20 -19 -20 2 17 6 -20 -20 -20 -20 0 -19 3 15 10 -11 -20 -20 -20 -20 -20 -20 -20 -20 -20
-20 -20 -20 -20 -20 -20 -20 -20 -20 -20 -20 -20 -20 -20 -20 -20 -20 -20 -20 -20 -20 -20 -15 -17 -17 -20 4 -20 -18 -13 8 -20 -20 -20 -20 -20 -20 -20 -20 -20 -20 -20 -20
-20 -20 -20 -20 -20 -20 -20 -20 -20 -20 -20 -20 -20 -20 -20 -20 -20 -20 -20 -20 -20 -20 -9 -19 -20 -1 2 -13 -17 -11 -18 7 8 10 -19 -20 -20 -20 -20 -20 -20 -20 -20
-20 -20 -20 -20 -20 -20 -20 -20 -20 -20 -20 -20 -20 -20 -20 -20 -20 -20 -20 -20 -20 -20 -20 -20 -17 -12 -3 5 -9 -6 4 -1 -18 -20 -20 -20 -20 -20 -20 -20 -20 -20 -20
-20 -20 -20 -20 -20 -20 -20 -20 -20 -20 -20 -20 -20 -20 -20 -20 -20 -20 -20 -20 -20 -20 -20 -20 -20 -20 -20 -20 -20 -20 -20 -20 -20 -20 -20 -20 -20 -20 -20 -20 -20 -20 -20
-20 -20 -20 -20 -20 -20 -20 -20 -20 -20 -20 -20 -20 -20 -20 -20 -20 -20 -20 -20 -20 -20 -20 -20 -20 -20 -20 -20 -20 -20 -20 -20 -20 -20 -20 -20 -20 -20 -20 -20 -20 -20 -20
-20 -20 -20 -20 -20 -20 -20 -20 -20 -20 -20 -20 -20 -20 -20 -20 -20 -20 -20 -20 -20 -20 -20 -20 -20 -20 -20 -20 -20 -20 -20 -20 -20 -20 -20 -20 -20 -20 -20 -20 -20 -20 -20
-20 -20 -20 -20 -20 -20 -20 -20 -20 -20 -20 -20 -20 -20 -20 -20 -20 -20 -20 -20 -20 -20 -20 -20 -20 -20 -20 -20 -20 -20 -20 -20 -20 -20 -20 -20 -20 -20 -20 -20 -20 -20 -20
-20 -20 -20 -20 -20 -20 -20 -20 -20 -20 -20 -20 -20 -20 -20 -20 -20 -20 -20 -20 -20 -20 -20 -20 -20 -20 -20 -20 -20 -20 -20 -20 -20 -20 -20 -20 -20 -20 -20 -20 -20 -20 -20
-20 -20 -20 -20 -20 -20 -20 -20 -20 -20 -20 -20 -20 -20 -20 -20 -20 -20 -20 -20 -20 -20 -20 -20 -20 -20 -20 -20 -20 -20 -20 -20 -20 -20 -20 -20 -20 -20 -20 -20 -20 -20 -20
-20 -20 -20 -20 -20 -20 -20 -20 -20 -20 -20 -20 -20 -20 -20 -20 -20 -20 -20 -20 -20 -20 -20 -20 -20 -20 -20 -20 -20 -20 -20 -20 -20 -20 -20 -20 -20 -20 -20 -20 -20 -20 -20
Wind_Speed
4 4 5 5 5 4 3 5 5 5 5 6 7 8 9 8 10 6 5 14 17 21 23 23 22 22 21 22 21 21 20 19 18 17 17 16 16 16 17 16 16 16 15
4 4 4 4 5 5 5 4 4 5 5 5 5 5 6 6 7 9 7 8 13 18 22 23 23 23 23 24 23 22 21 20 19 18 18 18 16 15 16 17 16 16 16
4 4 3 4 4 4 6 5 6 4 4 5 6 5 5 6 5 6 7 6 5 14 15 19 22 22 23 24 25 23 22 21 21 20 20 18 17 15 16 16 16 16 17
5 4 4 4 4 4 4 4 4 4 4 4 4 5 5 5 6 7 6 4 4 4 8 17 19 21 23 23 26 25 23 22 20 20 19 19 17 16 16 16 16 17 18
7 5 4 4 5 4 4 4 3 2 4 4 5 4 4 4 5 5 7 9 9 9 7 10 17 20 22 23 25 27 25 23 19 17 17 17 15 14 13 12 11 16 19
7 5 4 5 5 4 4 4 3 3 3 4 5 5 5 5 4 5 8 8 9 10 10 9 8 9 21 23 25 26 26 22 21 16 15 13 9 6 11 15 15 14 15
8 7 5 5 5 4 5 5 3 4 4 3 3 4 3 5 6 5 5 5 8 9 10 10 7 5 8 22 26 22 24 24 16 17 18 16 13 12 15 14 16 16 16
5 8 5 7 6 4 6 5 3 3 3 1 2 2 4 5 3 6 5 5 6 6 8 9 11 13 11 8 14 20 22 24 25 25 24 20 18 18 21 17 22 19 18
8 5 6 5 6 4 4 5 4 3 3 3 1 1 4 2 7 3 5 5 6 5 6 6 5 6 10 10 9 14 22 22 24 24 26 23 19 18 19 22 22 20 23
6 7 5 4 4 4 5 5 5 3 2 4 3 1 3 4 3 7 2 5 5 6 5 4 4 6 7 8 11 11 14 11 18 19 18 16 14 15 16 17 19 18 15
7 5 6 5 7 4 4 5 6 5 3 2 2 2 2 3 4 3 9 6 5 5 7 4 4 4 7 10 6 7 18 19 20 16 10 5 2 6 9 12 10 9 8
3 4 7 6 6 6 5 4 5 4 3 3 2 3 2 2 7 4 6 8 7 5 3 6 7 7 7 10 7 21 3 9 10 7 9 17 17 14 13 11 10 8 8
3 3 5 4 5 6 6 5 5 5 4 6 4 4 3 4 3 4 4 6 4 3 1 5 6 6 8 7 10 16 21 20 21 17 18 18 14 10 9 8 6 6 5
4 5 4 4 5 6 6 4 4 3 4 5 5 4 3 4 4 4 4 5 5 3 2 3 5 5 5 6 11 15 9 19 18 15 17 14 12 8 8 8 7 7 7
3 4 5 5 5 5 7 6 3 4 3 4 4 4 2 3 3 4 3 5 4 3 2 2 2 4 4 5 8 8 8 17 15 12 12 10 9 8 8 7 7 7 7
4 5 5 5 5 5 6 4 4 5 3 3 3 4 3 3 4 3 3 3 3 2 2 3 4 4 4 5 7 5 6 8 10 9 9 8 6 6 6 7 7 7 7
5 5 5 5 5 5 5 4 4 4 4 4 3 4 2 3 3 3 3 1 2 1 1 1 2 3 3 4 4 4 4 3 3 8 7 6 6 5 5 6 7 8 8
5 6 5 5 5 5 5 5 5 5 3 2 3 4 4 3 3 3 3 2 1 2 2 2 1 1 3 2 2 2 2 3 3 5 5 4 3 1 3 4 5 6 6
7 6 6 5 5 5 4 5 5 5 1 1 1 2 4 4 3 1 2 3 2 2 1 2 2 1 1 2 2 3 3 3 3 6 6 5 3 3 3 5 4 4 4
7 7 7 6 6 6 5 5 5 3 3 2 1 1 1 2 3 4 1 2 1 2 2 3 3 2 2 2 3 2 3 3 3 4 5 7 5 5 4 6 5 3 1
7 7 7 7 7 6 5 6 4 3 4 3 2 1 0 1 3 4 1 2 1 1 2 2 2 2 1 2 2 0 1 1 2 2 3 3 3 3 4 7 5 8 8
7 7 7 7 7 5 9 10 6 5 5 7 6 5 5 2 1 4 5 5 2 3 1 2 2 2 2 2 1 1 1 2 0 2 3 3 2 3 3 4 11 8 3
7 9 8 8 8 7 12 12 11 5 5 6 6 6 5 4 6 3 2 6 7 8 5 3 3 2 3 2 2 1 1 0 1 2 2 2 2 3 2 4 7 3 4
10 9 10 10 8 9 14 15 13 7 6 7 7 7 6 6 6 6 4 3 3 4 3 3 5 3 3 2 3 3 2 1 1 2 3 0 2 2 4 4 5 6 9
7 8 6 8 9 10 14 16 13 6 6 7 6 7 7 7 10 10 6 5 3 1 4 8 8 9 8 5 3 3 1 2 0 0 4 1 3 3 2 3 3 11 14
9 6 8 8 12 11 13 16 13 4 6 5 5 6 13 9 14 13 6 6 6 5 5 3 2 3 5 3 6 3 3 2 2 1 2 2 2 3 4 2 3 3 4
Wind_Direction
313 311 302 309 308 313 303 305 295 282 255 248 243 235 237 233 231 231 236 238 237 235 223 221 218 220 226 231 236 235 229 228 227 229 230 234 238 240 248 252 254 254 255
314 312 321 317 316 317 306 285 277 290 285 276 282 273 254 244 234 235 237 243 244 234 227 225 223 224 226 230 233 236 236 232 230 231 232 233 236 240 245 250 257 259 259
321 337 330 325 310 312 314 316 308 300 289 288 278 286 294 290 285 273 261 252 252 239 244 243 239 234 229 229 233 234 232 230 229 230 233 233 234 236 240 248 253 257 259
330 331 327 310 301 305 305 312 305 308 306 293 280 283 276 268 275 288 288 283 278 268 256 246 252 252 242 236 235 234 232 231 229 232 235 235 236 238 244 253 259 264 261
329 335 312 298 300 300 301 300 301 291 303 307 296 278 278 278 277 281 282 282 278 271 267 246 243 242 245 242 240 239 234 226 225 231 240 243 240 248 256 260 276 275 271
333 337 320 306 304 300 297 297 294 295 261 272 292 290 281 277 278 271 277 273 273 270 260 255 250 244 240 241 241 239 238 232 220 206 213 202 193 215 256 261 253 259 276
327 320 314 309 310 306 288 289 276 291 302 296 327 314 293 276 278 266 285 283 280 274 273 272 261 243 252 240 236 233 250 233 221 231 205 196 198 209 229 241 254 262 275
308 327 343 329 317 321 319 313 297 304 282 318 275 276 320 314 318 329 299 285 275 279 283 269 263 262 252 234 224 225 222 229 231 231 230 220 207 217 242 242 254 250 255
320 332 329 340 342 344 321 309 303 309 296 314 258 244 331 288 324 294 284 288 292 301 295 296 311 307 271 249 234 218 226 225 234 237 240 236 237 237 241 247 249 253 255
316 323 311 319 332 331 337 327 318 296 298 299 328 254 237 231 285 312 320 285 316 311 280 297 283 292 289 255 230 211 216 214 229 233 244 252 252 249 248 248 244 255 260
322 314 311 326 319 317 317 325 345 358 356 336 353 333 296 260 233 247 309 324 306 310 294 285 299 316 22 31 315 260 219 204 220 229 231 231 189 90 60 58 57 60 57
306 322 322 316 309 304 307 303 308 328 333 322 297 298 276 314 309 307 305 315 292 304 352 16 17 19 9 48 12 43 141 146 89 81 105 83 63 55 62 69 68 55 54
299 295 299 296 307 296 292 310 310 309 318 314 286 292 252 254 281 280 275 291 279 285 151 45 14 26 28 25 29 48 49 59 66 70 72 69 67 52 48 54 39 33 22
262 277 273 284 289 306 307 296 292 292 338 298 302 304 322 331 338 324 309 305 302 276 68 90 26 25 41 33 37 46 43 70 61 55 57 57 61 55 48 45 35 26 17
251 270 291 290 292 312 310 295 293 315 316 310 1 350 9 329 322 327 331 319 318 304 327 29 95 32 36 51 47 44 33 52 57 52 58 56 47 43 50 40 32 24 11
247 273 293 296 284 306 299 310 311 307 337 325 350 348 339 327 318 330 327 313 320 298 273 358 46 40 31 48 48 62 66 62 61 61 57 55 61 68 52 41 25 17 5
244 256 270 282 297 307 313 315 308 305 336 344 352 338 312 310 307 317 323 315 321 345 293 111 58 31 38 55 33 33 51 62 49 62 51 47 77 62 39 27 17 10 5
241 241 254 278 296 301 310 313 303 308 318 340 336 334 327 325 322 327 318 334 28 322 294 132 89 62 50 26 55 45 25 44 46 34 45 67 96 43 17 8 8 11 15
235 240 235 244 258 269 285 284 284 290 223 104 347 339 321 326 313 309 324 346 344 2 38 132 125 105 90 18 25 22 22 13 25 73 65 46 14 355 350 3 44 29 25
225 229 229 234 236 237 242 253 264 263 185 176 115 43 354 355 315 309 4 342 20 46 34 79 84 100 89 66 78 57 4 10 7 10 5 1 8 1 28 42 36 56 6
219 221 231 235 230 225 227 232 228 246 202 207 199 178 136 66 36 29 140 340 16 55 82 84 98 88 63 55 97 351 96 350 19 37 341 340 348 359 13 19 13 358 346
221 217 225 228 239 238 231 216 210 218 205 194 198 209 206 170 53 55 48 53 76 147 115 137 150 135 147 142 134 138 119 90 341 11 4 320 26 344 347 346 338 324 38
209 221 224 221 229 225 228 215 212 210 229 221 203 187 201 201 186 196 122 74 52 49 61 150 134 159 143 183 145 83 40 195 228 319 47 300 1 316 315 328 328 48 47
218 220 225 224 224 228 219 215 210 204 214 211 200 203 202 204 205 194 176 128 80 76 62 74 105 108 106 106 122 159 181 273 5 1 15 190 357 285 323 329 10 40 2
223 211 210 217 224 242 223 214 200 195 217 222 212 201 197 191 204 197 178 178 167 166 111 122 129 129 122 113 101 101 89 96 92 299 349 45 345 298 316 300 339 9 358
227 221 233 218 220 235 219 215 207 192 220 220 227 222 213 190 203 200 183 185 195 205 174 123 94 121 117 103 84 99 153 138 157 23 314 68 359 4 335 291 304 341 349